sat.trackr.live / text

‹ back to catalog

PLEIADES 1A

NORAD 38012 · 2011-076F

PAYLOAD ACTIVE UNKNOWN

§ Identity

Operator
Country
FR
Launch date
2011-12-17
Launch site
FRGUI
Launch vehicle
Mass (kg)
RCS (m²)
5.35

Purposes: earth_obs

External: N2YO · Heavens-Above · Gunter

§ Orbital elements

Epoch: 2026-05-25T04:55:51.805344Z

Period
98.73 min
Inclination
98.1974°
Eccentricity
0.0001261
Mean motion
14.58553470 rev/d
Perigee alt
697.0 km
Apogee alt
698.7 km
Semi-major
7,076.0 km
B*
5.0186e-5
RAAN
220.6158°
Arg perigee
106.2434°
Mean anomaly
276.9028°
Rev number
76,864

§ Raw data

PLEIADES 1A1 38012U 11076F   26145.20546071  .00000188  00000+0  50186-4 0  99922 38012  98.1974 220.6158 0001261 106.2434 276.9028 14.58553470768645

JSON: /api/v1/satellites/38012 · /tle

For live sub-satellite position, see the globe view (requires WebGL).

§ Visibility from observer

Set your observer location to see the next 7 days of passes ≥ 10°. The values pass through the URL so the page stays shareable.

No JS? Fill the form by hand. The geolocation button needs JavaScript.